Lincoln, NE

4:53 AM CST on November 14, 2019 (GMT -0600)
Lincoln Municipal

Weather History for KLNK - August, 2019

Change the Weather History Date:

Thursday, August 8, 2019

  Actual Average Record
Temperature  
Mean Temperature 79 °F 77 °F  
Max Temperature 90 °F 88 °F 110 °F (1934)
Min Temperature 68 °F 65 °F 50 °F (1989)
Degree Days  
Heating Degree Days 0 0  
Month to date heating degree days 0 0  
Since 1 June heating degree days 6 17  
Since 1 July heating degree days 0 1  
Cooling Degree Days 14 12  
Month to date cooling degree days 97 96  
Year to date cooling degree days 843 807  
Since 1 June cooling degree days 771 728  
Growing Degree Days 29 (Base 50)    
Moisture  
Dew Point 70 °F    
Average Humidity 76    
Maximum Humidity 97    
Minimum Humidity 55    
Precipitation  
Precipitation 0.00 in 0.11 in 1.71 in (2006)
Month to date precipitation 0.36 0.85  
Year to date precipitation 22.23 18.94  
Snow  
Snow 0.00 in 0.00 in T in (2004)
Month to date snowfall 0.0 0.0  
Since 1 June snowfall 0.0 0.0  
Since 1 July snowfall 0.0 0.0  
Snow Depth 0.00 in    
Sea Level Pressure  
Sea Level Pressure 29.93 in    
Wind  
Wind Speed 4 mph (NE)    
Max Wind Speed 13 mph    
Max Gust Speed 17 mph    
Visibility 10 miles    
Events      
T = Trace of Precipitation, MM = Missing Value Source: NWS Daily Summary

Daily Weather History Graph

Daily Weather History Graph

Search for Another Location

Airport or City:

Astronomy

Aug. 08, 2019 Rise Set
Actual Time 6:30 AM CDT 8:34 PM CDT
Civil Twilight 5:59 AM CDT 9:04 PM CDT
Nautical Twilight 5:22 AM CDT 9:41 PM CDT
Astronomical Twilight 4:42 AM CDT 10:21 PM CDT
Moon 3:12 PM CDT (8/8) 12:53 AM CDT (8/8)
Length of Visible Light 15h 04m
Length of Day
14h 04m
First Quarter, 60% of the Moon is Illuminated
Aug 8
First Quarter
Aug 15
Full
Aug 23
Last Quarter
Aug 30
New
Sep 5
First Quarter

Hourly Weather History & Observations

Time (CDT) Temp. Heat Index Dew Point Humidity Pressure Visibility Wind Dir Wind Speed Gust Speed Precip Events Conditions
12:54 AM 70.0 °F - 68.0 °F 93% 29.88 in 10.0 mi Calm Calm - N/A   Clear
1:54 AM 69.1 °F - 66.9 °F 93% 29.87 in 10.0 mi North 8.1 mph - N/A   Clear
2:54 AM 71.1 °F - 68.0 °F 90% 29.86 in 10.0 mi Calm Calm - N/A   Clear
3:36 AM 70.0 °F - 68.0 °F 93% 29.91 in 7.0 mi Calm Calm - N/A   Partly Cloudy
3:54 AM 70.0 °F - 68.0 °F 93% 29.88 in 9.0 mi Calm Calm - N/A   Clear
4:54 AM 68.0 °F - 66.0 °F 93% 29.89 in 9.0 mi Calm Calm - N/A   Clear
5:54 AM 69.1 °F - 66.9 °F 93% 29.89 in 10.0 mi Calm Calm - N/A   Clear
6:54 AM 70.0 °F - 66.9 °F 90% 29.91 in 10.0 mi Calm Calm - N/A   Clear
7:54 AM 71.1 °F - 68.0 °F 90% 29.93 in 10.0 mi Calm Calm - N/A   Clear
8:38 AM 72.0 °F - 69.1 °F 91% 29.98 in 10.0 mi North 4.6 mph - N/A   Mostly Cloudy
9:39 AM 75.0 °F - 70.0 °F 84% 29.99 in 8.0 mi NNE 3.5 mph - N/A   Mostly Cloudy
9:47 AM 75.9 °F - 70.0 °F 82% 29.99 in 7.0 mi NE 5.8 mph - N/A   Partly Cloudy
9:54 AM 75.9 °F - 70.0 °F 82% 29.95 in 7.0 mi NE 6.9 mph - N/A   Clear
10:54 AM 82.0 °F 86.7 °F 72.0 °F 71% 29.94 in 10.0 mi NE 5.8 mph - N/A   Partly Cloudy
11:43 AM 84.9 °F 90.7 °F 72.0 °F 65% 29.98 in 10.0 mi ENE 5.8 mph - N/A   Mostly Cloudy
11:54 AM 82.9 °F 87.5 °F 71.1 °F 67% 29.94 in 10.0 mi North - - N/A   Mostly Cloudy
12:12 PM 81.0 °F 85.2 °F 72.0 °F 74% 29.98 in 10.0 mi NNE 6.9 mph - N/A   Mostly Cloudy
12:54 PM 82.9 °F 88.0 °F 72.0 °F 69% 29.94 in 10.0 mi ENE 8.1 mph - N/A   Mostly Cloudy
1:26 PM 82.9 °F 88.0 °F 72.0 °F 69% 29.98 in 10.0 mi NNW 8.1 mph - N/A   Mostly Cloudy
1:38 PM 84.0 °F 89.6 °F 72.0 °F 67% 29.98 in 10.0 mi Variable 4.6 mph - N/A   Mostly Cloudy
1:54 PM 86.0 °F 92.2 °F 72.0 °F 63% 29.94 in 10.0 mi Variable 3.5 mph - N/A   Scattered Clouds
2:27 PM 86.0 °F 91.5 °F 71.1 °F 61% 29.97 in 10.0 mi WNW 3.5 mph - N/A   Mostly Cloudy
2:36 PM 88.0 °F 94.7 °F 72.0 °F 59% 29.97 in 10.0 mi Calm Calm - N/A   Mostly Cloudy
2:54 PM 86.0 °F 90.7 °F 70.0 °F 59% 29.93 in 10.0 mi Variable 3.5 mph - N/A   Clear
3:54 PM 88.0 °F 92.1 °F 69.1 °F 53% 29.91 in 10.0 mi Calm Calm - N/A   Partly Cloudy
4:54 PM 86.0 °F 90.1 °F 69.1 °F 57% 29.91 in 10.0 mi East 3.5 mph - N/A   Scattered Clouds
5:54 PM 84.9 °F 89.4 °F 70.0 °F 61% 29.90 in 10.0 mi East 6.9 mph - N/A   Mostly Cloudy
6:54 PM 82.9 °F 88.0 °F 72.0 °F 69% 29.91 in 10.0 mi NNE 6.9 mph - N/A   Mostly Cloudy
7:54 PM 81.0 °F 85.2 °F 72.0 °F 74% 29.92 in 10.0 mi NNE 5.8 mph - N/A   Mostly Cloudy
8:54 PM 78.1 °F - 71.1 °F 79% 29.93 in 10.0 mi NNE 6.9 mph - N/A   Clear
9:54 PM 77.0 °F - 68.0 °F 74% 29.94 in 10.0 mi NE 9.2 mph - N/A   Mostly Cloudy
10:54 PM 75.0 °F - 66.9 °F 76% 29.95 in 10.0 mi NE 11.5 mph - N/A   Partly Cloudy
11:54 PM 73.0 °F - 66.0 °F 79% 29.95 in 10.0 mi ENE 5.8 mph - N/A   Clear